TimeCST,TemperatureF,Dew PointF,Humidity,Sea Level PressureIn,VisibilityMPH,Wind Direction,Wind SpeedMPH,Gust SpeedMPH,PrecipitationIn,Events,Conditions,WindDirDegrees,DateUTC
12:53 AM,17.1,12.0,81,30.18,10.0,West,3.5,-,N/A,,Clear,260,2014-02-27 06:53:00
1:53 AM,17.1,10.9,77,30.18,10.0,Calm,Calm,-,N/A,,Clear,0,2014-02-27 07:53:00
2:53 AM,16.0,10.9,81,30.17,10.0,Calm,Calm,-,N/A,,Clear,0,2014-02-27 08:53:00
3:53 AM,19.0,12.0,74,30.15,10.0,West,4.6,-,N/A,,Clear,270,2014-02-27 09:53:00
4:53 AM,19.0,12.0,74,30.14,10.0,West,3.5,-,N/A,,Clear,260,2014-02-27 10:53:00
5:53 AM,19.9,12.9,74,30.14,10.0,West,3.5,-,N/A,,Clear,260,2014-02-27 11:53:00
6:53 AM,19.9,12.9,74,30.13,10.0,Calm,Calm,-,N/A,,Clear,0,2014-02-27 12:53:00
7:53 AM,25.0,17.1,72,30.13,10.0,Calm,Calm,-,N/A,,Clear,0,2014-02-27 13:53:00
8:53 AM,36.0,18.0,48,30.13,10.0,WSW,5.8,-,N/A,,Clear,240,2014-02-27 14:53:00
9:53 AM,42.1,17.1,37,30.12,10.0,SSW,8.1,-,N/A,,Clear,200,2014-02-27 15:53:00
10:53 AM,46.9,19.9,34,30.09,10.0,SSW,8.1,-,N/A,,Clear,200,2014-02-27 16:53:00
11:53 AM,50.0,21.0,32,30.06,10.0,SSW,9.2,-,N/A,,Clear,200,2014-02-27 17:53:00
12:53 PM,53.1,21.9,30,30.01,10.0,South,8.1,16.1,N/A,,Clear,180,2014-02-27 18:53:00
1:53 PM,55.0,21.0,27,29.96,10.0,South,11.5,-,N/A,,Clear,190,2014-02-27 19:53:00
2:53 PM,55.0,19.9,25,29.92,10.0,SSW,10.4,18.4,N/A,,Clear,200,2014-02-27 20:53:00
3:53 PM,55.9,19.9,25,29.90,10.0,South,12.7,-,N/A,,Clear,170,2014-02-27 21:53:00
4:53 PM,55.9,19.9,25,29.88,10.0,South,10.4,-,N/A,,Clear,190,2014-02-27 22:53:00
5:53 PM,54.0,21.0,28,29.86,10.0,South,8.1,-,N/A,,Clear,180,2014-02-27 23:53:00
6:53 PM,48.9,21.0,33,29.85,10.0,SSE,5.8,-,N/A,,Clear,150,2014-02-28 00:53:00
7:53 PM,46.9,21.9,37,29.84,10.0,SE,12.7,-,N/A,,Clear,130,2014-02-28 01:53:00
8:53 PM,45.0,23.0,42,29.81,10.0,SE,12.7,-,N/A,,Clear,140,2014-02-28 02:53:00
9:53 PM,44.1,24.1,45,29.81,10.0,SE,13.8,20.7,N/A,,Clear,140,2014-02-28 03:53:00
10:53 PM,44.1,24.1,45,29.78,10.0,SSE,13.8,-,N/A,,Clear,150,2014-02-28 04:53:00
11:53 PM,43.0,25.0,49,29.77,10.0,SE,11.5,-,N/A,,Clear,140,2014-02-28 05:53:00